ARIANE 2 DEB, 42485

Orbit data source: Space-Track

ARIANE 2 DEB, 42485 is space debris in HEO originally from a launch on Fri, 27 Jan 1989 UTC launched from the French Guiana (FRGUI). Debris objects in space refer to the collection of defunct objects orbiting the Earth. Examples of debris include non-operational satellites, rocket bodies, and fragments generated from explosions, collisions, or faulty payload assembly.

Loading next visibility...
Identifier
42485, 1989-006CM
Orbit
HEO
Country
Flag of FRFR
Related business
Manufacturer
EADS/LV
Mission
Spacecraft
Bus & Motor
Unknown
Mass
Unknown
Launch date (UTC)
1989-01-27 (37 years ago)
Launch vehicle
Unknown
Launch site
French Guiana (FRGUI)
Object type
Payload
Rocket body
Debris
Shape & HBR
Unknown shape, 0.3 m
Radar Cross Section
Medium (>0.1 m² and <1 m²)

Expand to show TLE details & history
Last TLE update: 2 days ago

TLE from 2 days ago
0 ARIANE 2 DEB
1 42485U 89006CM  26206.78240428 -.00000009  00000-0  00000-0 0  9997
2 42485   8.9333  36.2946 6706476 186.9303 109.3664  2.17670277 99407
Epoch: 2026-07-25T18:46Z
TLE epoch observation values (Epoch: 2026-07-25T18:46:39.729Z)
Latitude
-2.08081°
Longitude
157.86699°
Altitude
30,873.149 km
Speed
2.356 km/s
True Right ascension
01h 32m 05s
True Declination
-2° 04' 42"
Sunlit
Object was in daylight at epoch
Visualization orbit readout
Latitude
Unknown
Longitude
Unknown
Altitude
Unknown
Speed
Unknown
Apparent Right ascension
Unknown
Apparent Declination
Unknown
Sunlit
N/A
Visualization observer readout
Local Sidereal Time
02:02:23
Azimuth
Unknown
Elevation
Unknown
Doppler factor
Unknown
Orbital elements
Apogee altitude
35,645.369 km
Perigee altitude
1,906.4 km
Semi-major axis
25,154.022 km
Eccentricity
0.67065
Inclination
8.9333°
RAAN
36.2946°
Arg. of periapsis
186.9303°
True anomaly
159.67965°
Mean anomaly
109.3664°
Eccentric anomaly
136.03969°
Mean motion
0.54404 °/min
Orbital period
661.71 mins
BSTAR
0
Loading maneuver chart data...
Computing Atmospheric mass density...
Loading historical data...
Loading historical data...
Loading historical data...
Loading historical data...
Loading historical data...
Loading historical data...
Loading historical data...

Documentation

Showing up to 5 results
|